Regional Weather Roundup
Issued by NWS Newport/Morehead, NC

Current Version | Previous Version | Graphics & Text | Print | Product List | Glossary Off
Versions: 1 2 3 4 5 6 7 8 9 10 11 12 13 14 15 16 17 18 19 20 21 22 23 24 25 26 27 28 29 30 31 32 33 34 35 36 37 38 39 40 41 42 43 44 45 46 47 48 49 50

000
ASUS42 KMHX 151810
RWRMHX
WEATHER ROUNDUP FOR EASTERN NORTH CAROLINA
NATIONAL WEATHER SERVICE NEWPORT/MOREHEAD CITY NC
200 PM EDT MON SEP 15 2014

NOTE: "FAIR" INDICATES FEW OR NO CLOUDS BELOW 12,000 FEET
WITH NO SIGNIFICANT WEATHER AND/OR OBSTRUCTIONS TO VISIBILITY

NCZ015>017-031-032-045>047-102-103-151900-
NORTH COAST

CITY           SKY/WX    TMP DP  RH WIND       PRES   REMARKS
EDENTON        CLOUDY    74  64  68 SE7       30.18F
ELIZABETH CITY CLOUDY    74  61  63 NE7       30.18F
KITTY HAWK     CLEAR     74  60  60 E6        30.17F
MANTEO         SUNNY     73  61  65 NE10      30.18F

$$

NCZ045>047-081-094-103-104-151900-
CENTRAL COAST

CITY           SKY/WX    TMP DP  RH WIND       PRES   REMARKS
FRISCO         CLOUDY    74  63  68 NE9       30.17F
SWANQUARTER      N/A     77 N/A N/A NE1G7     30.12F

$$

NCZ095-097-098-100-101-151900-
SOUTHERN COAST

CITY           SKY/WX    TMP DP  RH WIND       PRES   REMARKS
BEAUFORT       PTSUNNY   79  65  62 NE7       30.17F
CEDAR ISLAND     N/A     75 N/A N/A NE12      30.21F
JACKSONVILLE   CLOUDY    73  61  65 E7        30.18F
NEWPORT        NOT AVBL
PINEY ISLAND   CLOUDY    77  62  59 NE12      30.17F
WILMINGTON     CLOUDY    76  65  68 E7        30.18F


$$

NCZ011>013-027>030-043-044-078>080-089-090>093-098-151900-
COASTAL PLAIN

CITY           SKY/WX    TMP DP  RH WIND       PRES   REMARKS
AHOSKIE        PTSUNNY   72  59  65 CALM      30.19F
CLINTON        CLOUDY    74  66  75 CALM      30.19F
ELIZABETHTOWN  CLOUDY    75  65  71 NE3       30.19S
GOLDSBORO      PTSUNNY   73  67  81 VRB6      30.17F
GREENVILLE     PTSUNNY   73  61  64 E3        30.20F
HAVELOCK       CLOUDY    76  64  66 NE8       30.19F
KENANSVILLE    CLOUDY    73  62  67 CALM      30.20S
KINSTON        MOSUNNY   73  63  68 NE3       30.20
NEW BERN       CLOUDY    75  63  66 E3        30.19F
RICHLANDS      CLOUDY    73  63  68 SE5       30.19F
ROANOKE RAPIDS NOT AVBL
ROCKY MOUNT    PTSUNNY   75  62  64 VRB5      30.19F
WASHINGTON     PTSUNNY   72  62  69 E5        30.19F
WHITEVILLE     CLOUDY    72  66  81 E3        30.18F

$$

AMZ130-135-150-152-154-156-158-170-250-252-270-ANZ085-086-088-633-658-670-151900-
MARINE OBSERVATIONS

STATION/POSITION TIME  TEMP    WIND        PRES    WAVE   SWELL
                       AIR SEA DIR/SP/G            HT/PER HT/PER
                 (UTC) (F)     (DEG/KT/KT) (MB)    (FT/S) (FT/S)
CHESAPEAKE LIGHT 1700   68      50/  8/ 10 1023.4
BUOY 44014       1800   70 80   20/  8/ 12 1021.8    3/ 8   2/ 8
DUCK             1800   71 76   50/  8/ 10 1021.5
2E DUCK          1800                        N/A     2/ 6
OREGON INLET     1800   73 74   40/ 10/ 13 1021.8
BUOY 44095       1700      76                N/A     4/ 8
20E OREGON INLET NOT AVBL
HATTERAS CG      1800   74 76   40/  7/ 10 1022.0
DIAMOND BUOY     1800   74      10/ 12/ 16 1021.1    4/ 7   3/ 7
CAPE LOOKOUT     1800   75      40/ 11/ 12 1021.4
BEAUFORT LAB     1800   76 78   30/  6/ 11 1021.2
30 SE NEW RIVER  1800   76 82   50/ 12/ 14 1021.8    3/ 8   2/ 8
5 SE WRIGHTSVILL 1700   70 81   50/ 10/ 14   N/A
BUOY 41002       1651   76 83  280/  2/  4 1021.2    4/ 5   3/ 5
BUOY 41004       1800   81 84   30/  4/  4 1020.4    2/ 5   2/ 5

$$



USA.gov is the U.S. government's official web portal to all federal, state and local government web resources and services.